Flag for U.S.A. Weather past 2 weeks in Colorado Springs, Colorado, U.S.A.

Now
73 °F

Partly sunny.


Feels Like: 77 °F
Forecast: 60 / 79 °F
Wind: 7 mph from West

Location: City Of Colorado Springs Municipal Airport

Current Time: Aug 31, 2015 at 10:10:32 AM

Latest Report: Aug 31, 2015 at 8:54 AM


Visibility: 10 mi

Pressure: 29.88 "Hg (24.19 "Hg at 1831m altitude)

Humidity: 36%

Dew point: 44 °F

Location of Colorado SpringsLocation

Historic Weather in Colorado Springs — Graph

°F

Colorado Springs temperature yesterday

Maximum temperature yesterday: 89 °F (at 2:54 PM)
Minimum temperature yesterday: 54 °F (at 5:54 AM)
Average temperature yesterday: 73 °F

Past Weeks' High & Low Weather Summary

 TemperatureHumidityPressure
High91 °F (Aug 22, 2:54 PM)90% (Aug 17, 6:54 AM)30.23 "Hg (Aug 17, 6:54 AM)
Low47 °F (Aug 20, 5:54 AM)9% (Aug 21, 12:54 PM)29.68 "Hg (Aug 22, 1:54 AM)
Average69 °F45%29.96 "Hg
* Reported Aug 16 8:54 AM — Aug 31 8:54 AM, Colorado Springs, Weather by CustomWeather, © 2015

Note: Actual official high and low records may vary slightly from our data, if they occured in-between our weather recording intervals... More about our weather records

Advertising

Colorado Springs weather history for previous 24 hours

 ConditionsComfort  
Time TempWeatherWind HumidityBarometerVisibility
8:54 AM
Mon, Aug 31
73 °FPartly sunny.7 mph36%29.88 "Hg10 mi
7:54 AM70 °FPartly sunny.3 mph42%29.87 "Hg10 mi
6:54 AM66 °FPassing clouds.3 mph42%29.84 "Hg10 mi
5:54 AM68 °FPassing clouds.No wind42%29.79 "Hg10 mi
4:54 AM63 °FPassing clouds.5 mph56%29.78 "Hg10 mi
3:54 AM65 °FPassing clouds.6 mph47%29.76 "Hg10 mi
2:54 AM65 °FPassing clouds.9 mph52%29.76 "Hg10 mi
1:54 AM61 °FPassing clouds.12 mph62%29.80 "Hg10 mi
12:54 AM63 °FPassing clouds.12 mph56%29.80 "Hg10 mi
11:54 PM
Sun, Aug 30
65 °FPassing clouds.8 mph52%29.80 "Hg10 mi
10:54 PM72 °FPassing clouds.3 mph40%29.80 "Hg10 mi
9:54 PM72 °FPassing clouds.No wind34%29.82 "Hg10 mi
8:54 PM76 °FPassing clouds.7 mph27%29.80 "Hg10 mi
7:54 PM77 °FScattered clouds.8 mph26%29.80 "Hg10 mi
6:54 PM83 °FScattered clouds.10 mph19%29.81 "Hg10 mi
5:54 PM88 °FPassing clouds.14 mph15%29.81 "Hg10 mi
4:54 PM88 °FPassing clouds.14 mph15%29.81 "Hg10 mi
3:54 PM88 °FPassing clouds.12 mph15%29.83 "Hg10 mi
2:54 PM89 °FPassing clouds.10 mph14%29.83 "Hg10 mi
1:54 PM87 °FPassing clouds.No wind14%29.87 "Hg10 mi
12:54 PM87 °FScattered clouds.10 mph16%29.88 "Hg10 mi
11:54 AM85 °FScattered clouds.9 mph21%29.91 "Hg10 mi
10:54 AM80 °FScattered clouds.6 mph28%29.93 "Hg10 mi
Weather by CustomWeather, © 2015

See weather overviewHow to use our weather pages